User: anonymous   Login
Location: Seminole
(32.7190°N, 102.6440°W)
Time: 11:08:32
(UTC-05:00)
Language:

Meteor 2-10 - Orbit

View from above orbital plane
View from above orbital plane
View from above satellite
View from above satellite

Ground track
Ground track

The orbit data is extracted from the following two-line orbital elements,

1 14452U 83109A   15243.82067160  .00000071  00000-0  22696-4 0  9999
2 14452  81.1635  17.7773 0091778 121.7801 239.2360 14.26358493655596
Epoch (UTC): 31 August 2015 19:41:46
Eccentricity: 0.0091778
inclination: 81.1635°
perigee height: 738 km
apogee height: 870 km
right ascension of ascending node: 17.7773°
argument of perigee: 121.7801°
revolutions per day: 14.26358493
mean anomaly at epoch: 239.2360°
orbit number at epoch: 65559

The dashed part of the orbit path shows where the satellite is in the earth's shadow,  

DLR